Change the Weather History Date:

Monday, January 30, 2012

  Actual Average Record
Temperature  
Mean Temperature 47 °F -  
Max Temperature 63 °F - 75 °F (1975)
Min Temperature 30 °F - -6 °F (1966)
Degree Days  
Heating Degree Days 18    
Month to date heating degree days 714  
Since 1 July heating degree days 2099  
Cooling Degree Days 0    
Month to date cooling degree days 0  
Moisture  
Dew Point 25 °F    
Average Humidity 54    
Maximum Humidity 85    
Minimum Humidity 23    
Precipitation  
Precipitation 0.00 in - 4.24 in (1956)
Month to date precipitation 4.17  
Sea Level Pressure  
Sea Level Pressure 30.26 in    
Wind  
Wind Speed 11 mph (SSW)    
Max Wind Speed 22 mph    
Max Gust Speed 31 mph    
Visibility 10 miles    
Events      
T = Trace of Precipitation, MM = Missing Value Source: NWS Daily Summary

Daily Weather History Graph

Daily Weather History Graph

Search for Another Location

Airport or City:

Trip Planner

Search our weather history database for the weather conditions in past years. The results will help you decide how hot, cold, wet, or windy it might be!

Date:

Astronomy

Jan. 30, 2012 Rise Set
Actual Time 6:53 AM CST 5:12 PM CST
Civil Twilight 6:26 AM CST 5:40 PM CST
Nautical Twilight 5:55 AM CST 6:11 PM CST
Astronomical Twilight 5:24 AM CST 6:41 PM CST
Moon 10:29 AM CST (1/30) No Moon Set
Length of Visible Light 11h 14m
Length of Day
10h 19m
Waxing Crescent, 46% of the Moon is Illuminated
Jan 30
Waxing Crescent
Jan 30
First Quarter
Feb 7
Full
Feb 14
Last Quarter
Feb 21
New

Hourly Weather History & Observations

Time (CST) Temp. Windchill Dew Point Humidity Pressure Visibility Wind Dir Wind Speed Gust Speed Precip Events Conditions
12:52 AM 30.9 °F 27.5 °F 26.1 °F 82% 30.30 in 10.0 mi SE 3.5 mph - N/A   Clear
1:52 AM 30.9 °F 27.5 °F 25.0 °F 79% 30.29 in 10.0 mi SE 3.5 mph - N/A   Clear
2:52 AM 30.9 °F - 24.1 °F 76% 30.29 in 10.0 mi Calm Calm - N/A   Clear
3:52 AM 36.0 °F 32.1 °F 23.0 °F 59% 30.28 in 10.0 mi SSW 4.6 mph - N/A   Clear
4:52 AM 37.9 °F 32.1 °F 24.1 °F 57% 30.28 in 10.0 mi SSW 8.1 mph - N/A   Clear
5:52 AM 39.0 °F 34.0 °F 24.1 °F 55% 30.29 in 10.0 mi SW 6.9 mph - N/A   Clear
6:52 AM 39.0 °F 33.4 °F 24.1 °F 55% 30.31 in 10.0 mi SSW 8.1 mph - N/A   Clear
7:52 AM 41.0 °F 35.2 °F 24.1 °F 51% 30.32 in 10.0 mi SSW 9.2 mph - N/A   Clear
8:52 AM 46.0 °F 41.0 °F 25.0 °F 44% 30.31 in 10.0 mi SSW 10.4 mph - N/A   Clear
9:52 AM 52.0 °F - 26.1 °F 37% 30.30 in 10.0 mi SW 13.8 mph 18.4 mph N/A   Clear
11:52 AM 59.0 °F - 28.0 °F 31% 30.27 in 10.0 mi SW 12.7 mph - N/A   Clear
2:52 PM 62.1 °F - 25.0 °F 24% 30.20 in 10.0 mi SW 17.3 mph 27.6 mph N/A   Clear
3:52 PM 62.1 °F - 25.0 °F 24% 30.19 in 10.0 mi SSW 18.4 mph 25.3 mph N/A   Partly Cloudy
4:52 PM 60.1 °F - 24.1 °F 25% 30.19 in 10.0 mi SSW 12.7 mph 23.0 mph N/A   Clear
5:52 PM 55.9 °F - 25.0 °F 30% 30.20 in 10.0 mi South 10.4 mph - N/A   Clear
6:52 PM 55.0 °F - 26.1 °F 33% 30.21 in 10.0 mi SSW 11.5 mph - N/A   Clear
7:52 PM 53.1 °F - 26.1 °F 35% 30.22 in 10.0 mi South 11.5 mph - N/A   Clear
9:52 PM 53.1 °F - 25.0 °F 34% 30.21 in 10.0 mi SSW 11.5 mph - N/A   Clear
11:52 PM 52.0 °F - 24.1 °F 34% 30.20 in 10.0 mi SSW 12.7 mph - N/A   Clear